デニング-藤川彗星

72P/Denning-Fujikawa (1996)

English version
Home page
Updated on January 24, 2015

---------------------------------------------------------------------

・ プロフィール

・ 軌道要素

Epoch 1996 June 6.0 TT = JDT 2450240.5
T 1996 May 29.94425 TT                                  MPC
q   0.7901510            (2000.0)            P               Q
n   0.10912661     Peri.  337.57535     +0.96757647     -0.23438757
a   4.3369286      Node    36.38985     +0.24905835     +0.82338556
e   0.8178086      Incl.    9.12805     +0.04202047     +0.51681592
P   9.03
From 26 observations 1881 Oct. 19-2014 June 18, mean residual 1".6.
     Nongravitational parameters A1 = -0.06, A2 = +0.0240.

・ 星図

・ 1996年 3月18日〜1996年 6月16日
・ 1996年 6月 6日〜1996年12月 3日

・ 光度変化

        m1 = 15.5 + 5 logΔ + 25.0 log r

---------------------------------------------------------------------

軌道要素はM.P.E.C. 2014-M11に掲載されたものです。
星図は StellaNavigator Ver.2.0 for Windows (アストロアーツ編著 / アスキー出版局刊) で作成したものです。
光度グラフはComet for Windowsで作成したものです。

---------------------------------------------------------------------

Copyright(C) Seiichi Yoshida (comet@aerith.net). All rights reserved.